[Date Prev][Date Next][Thread Prev][Thread Next] - [Date Index][Thread Index][Author Index]

2 Line ISS Keps 2-1



ISS 
1 25544U 98067A   05032.01969039  .00010918  00000-0  91703-4 0  7134
2 25544  51.6444 237.1781 0009642  52.5896  83.3965 15.70467460354276
----
Via the sarex mailing list at AMSAT.ORG courtesy of AMSAT-NA.
To unsubscribe, send "unsubscribe sarex" to Majordomo@amsat.org



AMSAT Top AMSAT Home